Change the Weather History Date:

Saturday, November 16, 2013

  Actual Average Record
Temperature  
Mean Temperature 64 °F -  
Max Temperature 72 °F 58 °F 77 °F (1941)
Min Temperature 57 °F 34 °F 12 °F (1940)
Growing Degree Days 14 (Base 50)    
Moisture  
Dew Point 55 °F    
Average Humidity 71    
Maximum Humidity 84    
Minimum Humidity 43    
Precipitation  
Precipitation 0.12 in - - ()
Sea Level Pressure  
Sea Level Pressure 29.85 in    
Wind  
Wind Speed 11 mph (South)    
Max Wind Speed 20 mph    
Max Gust Speed 30 mph    
Visibility 7 miles    
Events Rain , Thunderstorm    
Averages and records for this station are not official NWS values.
T = Trace of Precipitation, MM = Missing Value Source: NWS Daily Summary

Daily Weather History Graph

Daily Weather History Graph

Search for Another Location

Airport or City:

Trip Planner

Search our weather history database for the weather conditions in past years. The results will help you decide how hot, cold, wet, or windy it might be!

Date:

Astronomy

Nov. 16, 2013 Rise Set
Actual Time 6:40 AM CST 4:51 PM CST
Civil Twilight 6:13 AM CST 5:18 PM CST
Nautical Twilight 5:41 AM CST 5:50 PM CST
Astronomical Twilight 5:10 AM CST 6:20 PM CST
Moon 4:25 PM CST (11/16) 5:38 AM CST (11/16)
Length of Visible Light 11h 05m
Length of Day
10h 10m
Waxing Gibbous, 99% of the Moon is Illuminated
Nov 16
Waxing Gibbous
Nov 17
Full
Nov 25
Last Quarter
Dec 2
New
Dec 9
First Quarter

Hourly Weather History & Observations

Time (CST) Temp. Dew Point Humidity Pressure Visibility Wind Dir Wind Speed Gust Speed Precip Events Conditions
7:53 AM 70.0 °F 48.0 °F 46% 29.97 in 10.0 mi South 6.9 mph - N/A   Overcast
8:36 AM 72.0 °F 48.0 °F 43% 29.98 in 10.0 mi South 10.4 mph - N/A   Overcast
8:53 AM 70.0 °F 48.0 °F 46% 29.96 in 10.0 mi South 9.2 mph - N/A   Overcast
9:45 AM 70.0 °F 50.0 °F 49% 29.95 in 3.0 mi South 12.7 mph - N/A   Haze
9:53 AM 69.1 °F 50.0 °F 51% 29.95 in 3.0 mi South 10.4 mph - N/A   Haze
10:00 AM 70.0 °F 50.0 °F 49% 29.94 in 2.5 mi South 11.5 mph - N/A   Haze
10:14 AM 70.0 °F 51.1 °F 51% 29.96 in 1.5 mi South 9.2 mph 18.4 mph N/A   Haze
10:40 AM 71.1 °F 51.1 °F 49% 29.96 in 2.0 mi South 8.1 mph - N/A   Haze
10:53 AM 70.0 °F 52.0 °F 53% 29.94 in 2.0 mi South 10.4 mph - N/A   Haze
11:04 AM 70.0 °F 52.0 °F 53% 29.95 in 1.5 mi South 9.2 mph - N/A   Haze
11:43 AM 57.9 °F 53.1 °F 84% 29.93 in 1.2 mi South 9.2 mph - N/A   Haze
11:53 AM 57.9 °F 53.1 °F 84% 29.91 in 1.2 mi South 9.2 mph - N/A   Haze
12:44 PM 60.1 °F 55.0 °F 83% 29.88 in 2.0 mi South 12.7 mph - N/A   Haze
12:53 PM 60.1 °F 55.0 °F 83% 29.87 in 2.5 mi South 10.4 mph 19.6 mph N/A   Haze
1:06 PM 61.0 °F 55.0 °F 81% 29.87 in 4.0 mi South 12.7 mph - N/A   Haze
1:33 PM 62.1 °F 55.9 °F 80% 29.86 in 8.0 mi South 10.4 mph - N/A   Overcast
1:53 PM 63.0 °F 55.9 °F 78% 29.86 in 10.0 mi South 10.4 mph - N/A   Overcast
2:20 PM 63.0 °F 55.9 °F 78% 29.85 in 8.0 mi South 13.8 mph - N/A   Overcast
2:53 PM 63.0 °F 55.9 °F 78% 29.83 in 10.0 mi South 11.5 mph - N/A   Overcast
3:28 PM 64.0 °F 55.9 °F 75% 29.82 in 10.0 mi South 12.7 mph - N/A   Overcast
3:42 PM 64.0 °F 55.9 °F 75% 29.81 in 10.0 mi South 12.7 mph - N/A   Scattered Clouds
3:53 PM 64.9 °F 57.0 °F 75% 29.81 in 10.0 mi South 12.7 mph - N/A   Scattered Clouds
4:53 PM 64.9 °F 57.0 °F 75% 29.80 in 10.0 mi South 17.3 mph - N/A   Overcast
5:11 PM 64.9 °F 57.0 °F 75% 29.78 in 10.0 mi SSE 17.3 mph 24.2 mph N/A   Mostly Cloudy
5:39 PM 64.9 °F 57.9 °F 78% 29.78 in 10.0 mi South 16.1 mph 28.8 mph N/A   Mostly Cloudy
5:53 PM 64.9 °F 57.9 °F 78% 29.78 in 10.0 mi South 17.3 mph 25.3 mph N/A   Mostly Cloudy
6:53 PM 64.9 °F 57.9 °F 78% 29.78 in 10.0 mi South 15.0 mph - 0.00 in   Mostly Cloudy
7:17 PM 66.0 °F 59.0 °F 78% 29.78 in 10.0 mi South 17.3 mph 24.2 mph N/A   Overcast
7:53 PM 66.0 °F 60.1 °F 81% 29.78 in 10.0 mi South 16.1 mph 25.3 mph 0.01 in Rain Light Rain
8:53 PM 66.9 °F 60.1 °F 79% 29.76 in 10.0 mi South 17.3 mph 25.3 mph 0.01 in   Overcast
9:08 PM 66.9 °F 60.1 °F 79% 29.77 in 10.0 mi South 18.4 mph 25.3 mph N/A Thunderstorm Overcast
9:22 PM 66.9 °F 60.1 °F 79% 29.77 in 10.0 mi South 16.1 mph 26.5 mph 0.00 in Rain , Thunderstorm Light Rain
9:31 PM 66.9 °F 60.1 °F 79% 29.76 in 9.0 mi South 19.6 mph 29.9 mph 0.00 in Rain Light Rain
9:53 PM 66.9 °F 60.1 °F 79% 29.75 in 7.0 mi South 17.3 mph 26.5 mph 0.01 in Rain Rain
10:53 PM 66.9 °F 60.1 °F 79% 29.74 in 10.0 mi South 15.0 mph 25.3 mph 0.01 in   Overcast
11:53 PM 66.9 °F 61.0 °F 81% 29.72 in 7.0 mi South 13.8 mph 27.6 mph 0.08 in Rain , Thunderstorm Light Rain